Theta_e
313 310 310 310 309 307 306 306 308 307 306 306 306 306 306 305 305 306 306 307 310 312
311 311 310 311 310 307 308 306 306 305 304 305 305 304 304 303 303 303 303 304 305 306
310 310 309 310 309 309 308 307 305 302 302 302 302 302 301 300 299 299 299 301 301 303
309 310 309 309 308 307 308 307 305 304 302 300 300 300 299 298 298 298 297 298 298 298
310 309 308 308 307 307 306 305 305 305 303 301 301 300 298 298 297 296 295 295 296 295
308 308 307 306 306 306 305 304 305 304 302 301 300 300 300 298 297 295 295 295 295 295
307 307 307 306 304 305 304 303 303 303 302 301 300 298 298 296 295 295 294 296 296 295
307 307 306 303 303 302 302 302 303 303 301 301 300 298 297 295 294 294 293 295 295 295
306 306 306 303 301 301 300 301 302 301 300 299 298 299 298 296 294 293 293 293 294 294
305 304 305 303 301 299 299 300 301 300 300 298 297 297 297 296 293 292 293 293 293 293
303 303 304 303 301 299 299 299 300 299 299 298 297 297 296 295 293 292 293 294 294 293
302 302 303 302 300 301 299 298 299 299 298 297 296 297 295 293 291 291 292 294 295 295
304 303 302 304 302 302 301 299 300 297 297 297 295 296 295 292 291 290 291 294 294 296
305 303 304 304 304 303 302 300 298 296 296 296 296 295 294 292 290 290 291 292 294 295
Wind_Speed
9 7 7 9 7 8 8 9 12 12 12 13 13 12 13 11 11 14 13 17 14 12
9 8 8 7 7 6 7 9 11 12 12 12 13 13 13 10 13 14 14 15 16 14
8 7 8 7 8 8 7 7 9 12 13 13 13 13 13 11 12 13 13 11 17 16
7 7 7 7 8 10 10 8 8 8 11 14 13 14 15 15 15 15 15 16 17 19
7 7 8 9 10 10 10 11 12 9 10 14 12 13 16 15 17 18 19 20 19 19
7 8 8 9 11 10 12 12 11 11 12 12 14 14 13 16 18 18 18 19 20 21
7 7 7 10 11 11 12 13 13 10 12 13 16 16 14 18 19 20 20 20 19 21
7 8 9 10 11 13 13 13 13 11 11 12 13 12 16 20 20 21 23 20 19 18
8 9 6 8 10 11 13 13 14 11 11 13 11 20 23 27 20 20 20 20 21 21
8 8 8 7 8 10 12 14 14 12 10 11 14 24 22 31 17 19 19 21 20 21
9 9 9 8 8 8 9 13 13 12 14 12 11 21 22 29 19 17 20 21 22 23
9 9 10 7 8 9 7 11 11 11 13 14 14 20 23 25 18 17 20 19 20 23
7 8 8 5 4 6 7 9 8 12 12 16 15 19 22 24 14 17 16 19 20 28
6 9 6 7 8 3 7 7 8 11 11 12 13 15 20 24 14 13 14 13 14 15
Wind_Direction
32 21 27 34 5 16 8 357 8 360 355 346 343 342 338 331 323 321 315 308 301 295
43 19 24 20 13 18 11 358 4 360 349 343 346 342 340 333 329 328 322 314 306 303
37 28 10 12 11 8 9 5 355 353 350 347 343 342 338 337 328 318 318 314 310 304
28 29 357 17 14 3 352 350 357 358 351 346 340 337 340 335 331 326 317 310 304 298
28 31 358 16 5 1 354 350 339 353 354 344 342 326 336 337 330 323 315 310 299 294
14 10 19 12 359 355 352 347 340 357 341 349 342 339 333 337 327 319 310 303 299 295
5 8 25 15 350 4 355 341 336 347 344 350 338 337 347 334 325 317 315 306 299 298
1 354 43 16 347 359 349 337 335 343 357 346 342 339 345 336 326 321 319 313 306 300
358 352 38 26 4 351 341 332 326 349 357 348 338 340 340 342 329 322 318 316 314 311
358 354 358 23 20 351 335 328 328 342 350 345 336 338 338 341 328 325 322 319 318 316
354 351 346 17 13 352 335 327 328 344 343 342 337 340 341 341 330 326 324 325 323 319
353 345 341 11 2 330 337 323 333 347 341 343 336 342 345 342 335 331 326 328 328 330
350 343 334 348 339 315 319 325 342 344 340 339 332 335 342 340 337 332 333 331 336 335
352 319 352 326 321 284 305 333 348 332 333 331 327 334 337 337 335 330 329 333 332 341